Mackinaw City, MI (49701)

6:42 PM EST on February 11, 2016 (GMT -0500)
NOS_NWLON | | Change Station
CLOSE
Current Station
Personal Weather Station
Location: Mackinaw City, MI
Elevation: 580 ft
Nearby Weather Stations

Elev 580 ft 45.78 °N, 84.73 °W | Updated 36 minutes ago

Overcast
Overcast
17 °F
Feels Like 2 °F
N
15
Wind Variable Wind from West
Gusts 21.0 mph

Today
High -- | Low -- °F
--% Chance of Precip.
Yesterday
High -- | Low -- °F
Precip. -- in
Pressure 30.10 in
Visibility 10.0 miles
Clouds Overcast 4600 ft
Windchill 2 °F
Dew Point Not available.
Humidity Not available.
Rainfall in
Snow Depth Not available.
7:48 AM 5:59 PM
Waxing Crescent, 15% visible
METAR KMCD 112337Z AUTO 27019G23KT 10SM OVC046 M09/M16 A3010 RMK AO2 T10911160
Pressure 30.10 in
Visibility 10.0 miles
Clouds Overcast 4600 ft
Windchill 2 °F
Dew Point Not available.
Humidity Not available.
Rainfall in
Snow Depth Not available.
7:48 AM 5:59 PM
Waxing Crescent, 15% visible
METAR KMCD 112337Z AUTO 27019G23KT 10SM OVC046 M09/M16 A3010 RMK AO2 T10911160

10-Day Weather Forecast

Almanac

Astronomy

Feb. 11, 2016 Rise Set
Actual Time
Civil Twilight
Nautical Twilight
Astronomical Twilight
Moon
Length of Visible Light
Length of Day
Tomorrow will be .
, % of the Moon is Illuminated

Today's Extremes

State Highs State Lows

Community

WunderPhotos

Upload Photos

1,892,180 photos uploaded!

WunderBlog® & News

Nearby

Air Quality

  Air Quality AQ Index Pollutant
Not available.

Snow Depth

Station Depth Elevation

Earthquake Activity

City Distance Mag. Time & Date
Minimum magnitude displayed is 2.5.

Coastal Water Temperatures

Place Temperature

Stations

Nearby Weather Stations

Station Location Temp. Windchill Dew Point Humidity Wind Precip. Elev Updated Type
                   

Watches & Warnings

There are currently no watches in effect.